Hourly Weather Roundup
Issued by NWS Central Illinois

Home | Current Version | Previous Version | Text Only | Print | Product List | Glossary On
Versions: 1 2 3 4 5 6 7 8 9 10 11 12 13 14 15 16 17 18 19 20 21 22 23 24 25 26 27 28 29 30 31 32 33 34 35 36 37 38 39 40 41 42 43 44 45 46 47 48 49 50
000
NZUS43 KILX 280310
HWRILX

AREA WEATHER ROUNDUP
NATIONAL WEATHER SERVICE, LINCOLN IL
1000 PM CDT FRI MAR 27 2015


CITY           SKY/WX    TMP DP  RH WIND       PRES   REMARKS
BLOOMINGTON    CLEAR     27  15  60 N7        30.19R WCI  20
CHAMPAIGN      CLEAR     26  17  68 NE8       30.18R WCI  18
DECATUR        CLEAR     27  15  61 N7        30.19R WCI  19
EFFINGHAM      FAIR      31  15  53 N3        30.20S
FLORA          CLEAR     31  20  64 N6        30.19S WCI  25
GALESBURG      CLEAR     26  15  64 CALM      30.19S
JACKSONVILLE   CLEAR     31  19  61 CALM      30.20R
LACON          CLEAR     25  17  70 CALM      30.21R
LAWRENCEVILLE  CLEAR     29  20  69 N6        30.18R WCI  23
LITCHFIELD     CLEAR     30  16  56 NE6       30.19R WCI  24
$$


CITY           SKY/WX    TMP DP  RH WIND       PRES   REMARKS
LINCOLN        CLEAR     29  19  64 CALM      30.22R
MACOMB         CLEAR     27  17  66 CALM      30.22R
MATTOON        FAIR      27  18  69 N7        30.17R WCI  19
MT CARMEL AP   CLEAR     32  21  64 CALM      30.18R
OLNEY-NOBLE AP CLEAR     30  19  64 N5        30.19R WCI  25
PARIS          CLEAR     27  18  70 NE5       30.19R WCI  22
PEORIA         FAIR      29  12  49 CALM      30.21R
PONTIAC        CLEAR     24  19  83 E6        30.21R WCI  17
RANTOUL        CLEAR     27  19  70 NE6       30.19R WCI  21
ROBINSON       CLEAR     28  19  69 NE7       30.19R WCI  21
SPRINGFIELD    CLEAR     29  15  56 NE6       30.20R WCI  23
TAYLORVILLE    FAIR      30  21  69 N5        30.20R WCI  25
$$

...REGIONAL REPORTS...


CITY           SKY/WX    TMP DP  RH WIND       PRES   REMARKS
CHICAGO O`HARE FAIR      24  12  60 VRB6      30.20S WCI  17
KANKAKEE       CLEAR     24  16  73 N6        30.21R WCI  16
MOLINE         CLEAR     25  17  72 CALM      30.20R
MOUNT VERNON   CLEAR     30  18  59 CALM      30.19R
PITTSFIELD     CLEAR     32  16  51 CALM      30.21R
QUINCY         MOCLDY    31  13  47 E5        30.19R WCI  26
ROCKFORD       CLEAR     26  11  52 E8        30.22R WCI  18
$$


CITY           SKY/WX    TMP DP  RH WIND       PRES   REMARKS
BURLINGTON     CLEAR     28  14  55 CALM      30.19R
CEDAR RAPIDS   CLEAR     30  12  47 NE5       30.18R WCI  25
DES MOINES     CLOUDY    37  10  32 SE7       30.16S WCI  32
KIRKSVILLE     CLOUDY    35  17  47 E3        30.18R
OTTUMWA        PTCLDY    28  12  51 E5        30.17S WCI  23
ST LOUIS       PTCLDY    37  19  48 N6        30.19R WCI  32
$$


CITY           SKY/WX    TMP DP  RH WIND       PRES   REMARKS
TERRE HAUTE    CLEAR     27  17  66 NE6       30.18R WCI  20
EVANSVILLE     CLEAR     34  21  59 N6        30.18R WCI  29
INDIANAPOLIS   PTCLDY    24   8  50 N15       30.14S WCI  11
LAFAYETTE      CLEAR     22  13  68 N8        30.19R WCI  12
MADISON        CLEAR     24   7  48 E5        30.20R WCI  18
MILWAUKEE      CLEAR     24  12  60 NE6       30.21R WCI  17
$$




USA.gov is the U.S. government's official web portal to all federal, state and local government web resources and services.